Tracking 19199 objects as of 25-Jun-2018
HD Live streaming from Space Station
objects crossing your sky now

FENGYUN 1C DEB

Track FENGYUN 1C DEB now!
10-day predictions


NORAD ID: 30961
Int'l Code: 1999-025BBB
Perigee: 636.4 km
Apogee: 845.9 km
Inclination: 98.9 °
Period: 99.5 minutes
Semi major axis: 7112 km
RCS: 0.0085 m2 (small)
Launch date: May 10, 1999
Source: People's Republic of China (PRC)
Launch site: Taiyaun Space Center, China (TSC)

Note: This is SATELLITE DEBRIS
aabbcc
Your satellite tracking list
Your tracking list is empty




NASA's NSSDC Master Catalog

Two Line Element Set (TLE):
1 30961U 99025BBB 18174.41783995 +.00000283 +00000-0 +80990-4 0  9994
2 30961 098.9051 050.2867 0147290 199.5912 159.9584 14.47435061253567
Source of the keplerian elements: AFSPC